Regional Weather Roundup
Issued by NWS Burlington, VT

Home | Current Version | Previous Version | Text Only | Print | Product List | Glossary On
Versions: 1 2 3 4 5 6 7 8 9 10 11 12 13 14 15 16 17 18 19 20 21 22 23 24 25 26 27 28 29 30 31 32 33 34 35 36 37 38 39 40 41 42 43 44 45 46 47 48 49 50
987
ASUS41 KBTV 290930
RWRBTV
VERMONT REGIONAL WEATHER ROUNDUP
NATIONAL WEATHER SERVICE BURLINGTON VT
500 AM EDT SAT APR 29 2017

NOTE: "FAIR" INDICATES FEW OR NO CLOUDS BELOW 12,000 FEET WITH NO
SIGNIFICANT WEATHER AND/OR OBSTRUCTIONS TO VISIBILITY.

* THESE REPORTS ARE NOT UNDER NWS QUALITY CONTROL AND/OR DO NOT
  REPORT WEATHER SUCH AS PRECIPITATION AND FOG.

VTZ001>019-291000-
_____VERMONT_____


CITY           SKY/WX    TMP DP  RH WIND       PRES   REMARKS
BURLINGTON     CLOUDY    64  41  42 S9        29.91F
MONTPELIER     CLOUDY    65  41  41 NW5       29.97F
MORRISVILLE    CLOUDY    50  43  77 CALM      29.94F
ST. JOHNSBURY*   N/A     51  43  74 MISG      29.94S
LYNDONVILLE*   MOCLDY    50  42  73 CALM      29.96S
MIDDLEBURY*    CLOUDY    65  43  44 SE5       29.95F
RUTLAND*       CLOUDY    68  42  38 SW10      29.98S
SPRINGFIELD    CLOUDY    53  45  74 N3        29.98F
HIGHGATE*      CLOUDY    56  44  64 CALM      29.92R
NEWPORT*       CLOUDY    50  44  77 CALM      29.93F
BENNINGTON     CLOUDY    56  50  80 SW3       29.97F
SUTTON*          N/A     55 N/A N/A MISG        N/A
ISLAND POND*     N/A     46 N/A N/A CALM        N/A
GALLUP MILLS*    N/A     46 N/A N/A MISG        N/A
UNION VILLAGE*   N/A     52 N/A N/A MISG        N/A
MT. MANSFIELD*   N/A     52 N/A N/A W30G41      N/A

_____LAKE CHAMPLAIN_____


CITY           SKY/WX    TMP DP  RH WIND       PRES   REMARKS
BURTON ISLAND*   N/A     54  39  58 SE2         N/A
COLCHESTER RF*   N/A     54  39  58 S7          N/A
DIAMOND ISL*     N/A     59  43  55 S7          N/A

$$

NYZ007-026>031-035-052-083-087-291000-
_____NORTHERN NEW YORK_____


CITY           SKY/WX    TMP DP  RH WIND       PRES   REMARKS
PLATTSBURGH    CLOUDY    57  41  55 CALM      29.91R
SARANAC LAKE   CLOUDY    54  42  64 W3        29.94R
MASSENA        CLOUDY    58  43  57 SW9       29.91F
OGDENSBURG*    FAIR      56  45  65 SW5       29.94R
POTSDAM*       CLEAR     55  46  71 SW7       29.93S
STARK FALLS*     N/A     55 N/A N/A SW5         N/A
WATERTOWN      CLOUDY    55  48  77 SW7       29.97R
FT DRUM        CLOUDY    59  46  61 W8        29.95R
ALBANY         CLOUDY    64  50  60 S3        29.96F
GLENS FALLS    CLOUDY    62  48  60 CALM      29.96F

$$
NHZ002-005-011-291000-
_____NEW HAMPSHIRE_____


CITY           SKY/WX    TMP DP  RH WIND       PRES   REMARKS
LEBANON        CLOUDY    58  46  64 CALM      29.96S
KEENE          CLOUDY    55  51  86 CALM      29.99F
MT WASHINGTON  CLOUDY    43  37  81 W51G63      N/A  WCI  30
PLYMOUTH       CLOUDY    52  48  85 CALM      29.97R
WHITEFIELD     CLOUDY    48  42  80 CALM      29.95S

$$

_____REGIONAL QUEBEC LOCATIONS_____


CITY           SKY/WX    TMP DP  RH WIND       PRES   REMARKS
MONTREAL       MOCLDY    57  43  58 SW12      29.87F
QUEBEC CITY    LGT RAIN  48  43  81 W5        29.86S
SHERBROOKE     CLOUDY    52  43  71 VRB2      29.90F

_____REGIONAL ONTARIO LOCATIONS_____


CITY           SKY/WX    TMP DP  RH WIND       PRES   REMARKS
OTTAWA         MOCLDY    54  45  71 SW8       29.88F

______KEY______
VSB  - VISIBILITY IN MILES
WCI  - WIND CHILL INDEX
HX   - HEAT INDEX
$$
NNNN




USA.gov is the U.S. government's official web portal to all federal, state and local government web resources and services.